| time (UTC) | temp C | wind direction | speed KPH | gust KPH | rain 1hr cm | rain 24hr cm | rain mn cm | humidity % | barometer mb |
| 20260505063637 | 21 | 225 | 4.8 | 6.4 | 0.00 | 0.00 | 0.00 | 75 | 1007.9 |
| 20260505062613 | 21 | 180 | 3.2 | 6.4 | 0.00 | 0.00 | 0.00 | 75 | 1007.9 |
| 20260505061637 | 21 | 180 | 4.8 | 6.4 | 0.00 | 0.00 | 0.00 | 75 | 1007.9 |
| 20260505060613 | 21 | 135 | 8.0 | 12.9 | 0.00 | 0.00 | 0.00 | 74 | 1008.0 |
| 20260505055637 | 21 | 135 | 11.3 | 14.5 | 0.00 | 0.00 | 0.00 | 74 | 1008.0 |
| 20260505054633 | 21 | 180 | 3.2 | 4.8 | 0.00 | 0.00 | 0.00 | 74 | 1008.4 |
| 20260505053200 | 21 | 158 | 9.7 | 16.1 | 0.00 | 0.00 | 0.00 | 73 | 1008.3 |
| 20260505052128 | 21 | 180 | 3.2 | 4.8 | 0.00 | 0.00 | 0.00 | 73 | 1008.6 |
| 20260505050616 | 21 | 90 | 3.2 | 4.8 | 0.00 | 0.00 | 0.00 | 73 | 1008.5 |
| 20260505041641 | 22 | 338 | 3.2 | 4.8 | 0.00 | 0.00 | 0.00 | 71 | 1008.5 |
| 20260505040616 | 22 | 180 | 3.2 | 4.8 | 0.00 | 0.00 | 0.00 | 71 | 1008.5 |
| 20260505035640 | 22 | 90 | 3.2 | 6.4 | 0.00 | 0.00 | 0.00 | 71 | 1008.7 |
| 20260505034616 | 22 | 225 | 6.4 | 12.9 | 0.00 | 0.00 | 0.00 | 71 | 1008.5 |
| 20260505033641 | 22 | 135 | 6.4 | 9.7 | 0.00 | 0.00 | 0.00 | 71 | 1008.5 |
| 20260505032616 | 22 | 135 | 1.6 | 4.8 | 0.00 | 0.00 | 0.00 | 71 | 1008.8 |
| 20260505031641 | 22 | 135 | 3.2 | 4.8 | 0.00 | 0.00 | 0.00 | 71 | 1008.7 |
| 20260505030616 | 22 | 135 | 1.6 | 3.2 | 0.00 | 0.00 | 0.00 | 70 | 1008.5 |
| 20260505025640 | 22 | 90 | 3.2 | 4.8 | 0.00 | 0.00 | 0.00 | 70 | 1008.7 |
| 20260505024616 | 22 | 270 | 3.2 | 4.8 | 0.00 | 0.00 | 0.00 | 65 | 1008.8 |
| 20260505023640 | 22 | 135 | 3.2 | 4.8 | 0.00 | 0.00 | 0.00 | 65 | 1008.7 |
| 20260505022617 | 22 | 135 | 6.4 | 11.3 | 0.00 | 0.00 | 0.00 | 65 | 1008.7 |
| 20260505021701 | 22 | 135 | 1.6 | 3.2 | 0.00 | 0.00 | 0.00 | 64 | 1008.5 |
| 20260505020617 | 23 | 158 | 4.8 | 4.8 | 0.00 | 0.00 | 0.00 | 64 | 1008.5 |
| 20260505015641 | 23 | 270 | 4.8 | 4.8 | 0.00 | 0.00 | 0.00 | 63 | 1008.5 |
| 20260505014617 | 23 | 90 | 1.6 | 4.8 | 0.00 | 0.00 | 0.00 | 62 | 1008.5 |
| 20260505013701 | 23 | 45 | 6.4 | 9.7 | 0.00 | 0.00 | 0.00 | 62 | 1008.4 |
| 20260505012616 | 23 | 225 | 4.8 | 4.8 | 0.00 | 0.00 | 0.00 | 62 | 1008.6 |
| 20260505011640 | 23 | 135 | 3.2 | 4.8 | 0.00 | 0.00 | 0.00 | 61 | 1008.6 |
| 20260505010616 | 23 | 135 | 4.8 | 4.8 | 0.00 | 0.00 | 0.00 | 61 | 1008.2 |
| 20260505005640 | 24 | 135 | 1.6 | 1.6 | 0.00 | 0.00 | 0.00 | 60 | 1008.6 |
| 20260505004616 | 24 | 135 | 6.4 | 9.7 | 0.00 | 0.00 | 0.00 | 60 | 1008.5 |
| 20260505003641 | 24 | 90 | 3.2 | 4.8 | 0.00 | 0.00 | 0.00 | 60 | 1008.7 |
| 20260505002617 | 25 | 180 | 4.8 | 9.7 | 0.00 | 0.00 | 0.00 | 58 | 1008.6 |
| 20260505001643 | 25 | 180 | 6.4 | 11.3 | 0.00 | 0.00 | 0.00 | 56 | 1008.8 |
| 20260505000637 | 26 | 135 | 8.0 | 14.5 | 0.00 | 0.00 | 0.00 | 56 | 1008.6 |
| 20260504235641 | 25 | 180 | 8.0 | 16.1 | 0.00 | 0.00 | 0.00 | 56 | 1008.7 |
| 20260504234616 | 25 | 180 | 6.4 | 11.3 | 0.00 | 0.00 | 0.00 | 56 | 1008.8 |
| 20260504233640 | 25 | 90 | 8.0 | 16.1 | 0.00 | 0.00 | 0.00 | 55 | 1008.6 |
| 20260504232616 | 26 | 225 | 4.8 | 6.4 | 0.00 | 0.00 | 0.00 | 54 | 1008.8 |
| 20260504231700 | 26 | 135 | 8.0 | 11.3 | 0.00 | 0.00 | 0.00 | 52 | 1009.2 |
| 20260504230637 | 27 | 135 | 9.7 | 14.5 | 0.00 | 0.00 | 0.00 | 50 | 1009.0 |
| 20260504225641 | 27 | 180 | 8.0 | 19.3 | 0.00 | 0.00 | 0.00 | 48 | 1009.3 |
| 20260504224617 | 27 | 180 | 4.8 | 6.4 | 0.00 | 0.00 | 0.00 | 48 | 1009.2 |
| 20260504223641 | 28 | 45 | 11.3 | 16.1 | 0.00 | 0.00 | 0.00 | 46 | 1009.1 |
| 20260504222616 | 28 | 180 | 8.0 | 12.9 | 0.00 | 0.00 | 0.00 | 46 | 1009.1 |
| 20260504221640 | 28 | 158 | 8.0 | 11.3 | 0.00 | 0.00 | 0.00 | 48 | 1009.3 |
| 20260504220616 | 28 | 0 | 11.3 | 14.5 | 0.00 | 0.00 | 0.00 | 46 | 1009.5 |
| 20260504215640 | 28 | 135 | 9.7 | 12.9 | 0.00 | 0.00 | 0.00 | 47 | 1009.7 |
| 20260504214617 | 28 | 158 | 8.0 | 14.5 | 0.00 | 0.00 | 0.00 | 47 | 1009.7 |
| 20260504213640 | 28 | 225 | 3.2 | 6.4 | 0.00 | 0.00 | 0.00 | 46 | 1009.7 |
| 20260504212617 | 28 | 0 | 4.8 | 8.0 | 0.00 | 0.00 | 0.00 | 46 | 1010.0 |
| 20260504211640 | 28 | 180 | 11.3 | 17.7 | 0.00 | 0.00 | 0.00 | 44 | 1010.1 |
| 20260504210616 | 28 | 135 | 4.8 | 9.7 | 0.00 | 0.00 | 0.00 | 44 | 1010.4 |
| 20260504205640 | 28 | 90 | 6.4 | 8.0 | 0.00 | 0.00 | 0.00 | 44 | 1010.3 |
| 20260504204617 | 28 | 0 | 6.4 | 11.3 | 0.00 | 0.00 | 0.00 | 42 | 1010.7 |
| 20260504203640 | 28 | 90 | 8.0 | 11.3 | 0.00 | 0.00 | 0.00 | 43 | 1011.0 |
| 20260504202616 | 28 | 135 | 8.0 | 12.9 | 0.00 | 0.00 | 0.00 | 43 | 1011.1 |
| 20260504201640 | 29 | 90 | 1.6 | 3.2 | 0.00 | 0.00 | 0.00 | 44 | 1011.3 |
| 20260504200616 | 28 | 180 | 8.0 | 12.9 | 0.00 | 0.00 | 0.00 | 43 | 1011.4 |
| 20260504195640 | 28 | 180 | 4.8 | 6.4 | 0.00 | 0.00 | 0.00 | 43 | 1011.7 |
| 20260504194616 | 28 | 180 | 8.0 | 11.3 | 0.00 | 0.00 | 0.00 | 42 | 1011.7 |
| 20260504193641 | 27 | 225 | 9.7 | 14.5 | 0.00 | 0.00 | 0.00 | 43 | 1011.7 |
| 20260504192617 | 27 | 225 | 8.0 | 9.7 | 0.00 | 0.00 | 0.00 | 42 | 1011.9 |
| 20260504191641 | 27 | 180 | 12.9 | 17.7 | 0.00 | 0.00 | 0.00 | 41 | 1012.3 |
| 20260504190617 | 27 | 225 | 9.7 | 14.5 | 0.00 | 0.00 | 0.00 | 41 | 1012.4 |
| 20260504185641 | 27 | 180 | 11.3 | 17.7 | 0.00 | 0.00 | 0.00 | 41 | 1012.5 |
| 20260504184616 | 27 | 225 | 8.0 | 11.3 | 0.00 | 0.00 | 0.00 | 40 | 1012.3 |
| 20260504183641 | 27 | 158 | 4.8 | 8.0 | 0.00 | 0.00 | 0.00 | 41 | 1012.6 |
| 20260504182616 | 26 | 135 | 6.4 | 9.7 | 0.00 | 0.00 | 0.00 | 43 | 1012.8 |
| 20260504181641 | 26 | 225 | 4.8 | 9.7 | 0.00 | 0.00 | 0.00 | 43 | 1012.8 |
| 20260504180617 | 26 | 180 | 6.4 | 11.3 | 0.00 | 0.00 | 0.00 | 43 | 1013.1 |
| 20260504175641 | 26 | 180 | 8.0 | 14.5 | 0.00 | 0.00 | 0.00 | 44 | 1013.3 |
| 20260504174616 | 26 | 248 | 11.3 | 22.5 | 0.00 | 0.00 | 0.00 | 44 | 1013.6 |
| 20260504173640 | 26 | 135 | 6.4 | 8.0 | 0.00 | 0.00 | 0.00 | 44 | 1013.7 |
| 20260504172616 | 25 | 270 | 6.4 | 11.3 | 0.00 | 0.00 | 0.00 | 43 | 1014.0 |
| 20260504171640 | 25 | 225 | 9.7 | 14.5 | 0.00 | 0.00 | 0.00 | 45 | 1014.2 |
| 20260504170616 | 25 | 180 | 8.0 | 11.3 | 0.00 | 0.00 | 0.00 | 44 | 1014.5 |
| 20260504150616 | 21 | 180 | 4.8 | 8.0 | 0.00 | 0.00 | 0.00 | 55 | 1015.4 |
| 20260504140657 | 20 | 0 | 4.8 | 9.7 | 0.00 | 0.00 | 0.00 | 61 | 1015.5 |
| 20260504130616 | 17 | 0 | 4.8 | 6.4 | 0.00 | 0.00 | 0.00 | 67 | 1015.6 |
| 20260504110616 | 16 | 180 | 4.8 | 8.0 | 0.00 | 0.00 | 0.00 | 70 | 1015.2 |
| 20260504100129 | 16 | 180 | 1.6 | 4.8 | 0.00 | 0.00 | 0.00 | 70 | 1015.4 |
| 20260504090129 | 16 | 225 | 1.6 | 1.6 | 0.00 | 0.00 | 0.00 | 64 | 1015.7 |
| 20260504081104 | 17 | 90 | 1.6 | 3.2 | 0.00 | 0.00 | 0.00 | 59 | 1016.0 |